Location: New Canada
(47.1017°N, 68.5042°W)
Time: 03:13:01
(UTC+00:00)

N. Korean satellite - Pass Details

Date: 29 November 2022
Orbit: 407 x 444 km, 97.3° (Epoch: 28 January)

Event Time Altitude Azimuth Distance (km) Brightness Sun altitude
Rises 21:55:11 0° 204° (SSW) 2,432 10.8 -11.2°
Reaches altitude 10° 21:57:43 10° 226° (SW) 1,581 10.3 -11.6°
Maximum altitude 22:00:00 17° 268° (W) 1,236 9.7 -12.0°
Drops below altitude 10° 22:02:20 10° 310° (NW) 1,612 9.6 -12.4°
Sets 22:04:57 0° 332° (NNW) 2,505 10.3 -12.8°
